Flag for USA

Past Weather in 40°46'32.6"N, 73°28'26.8"W, USA — Yesterday and Last 2 Weeks

Now
61 °F

Fog.


Feels Like: 61 °F
Forecast: 84 / 64 °F
Wind: N/A

Location: New York City - Central Park

Current Time: Jun 3, 2020 at 6:46:49 am

Latest Report: Jun 3, 2020 at 5:51 am


Visibility: 4 mi

Pressure: 29.68 "Hg

Humidity: 97%

Dew Point: 60 °F

Location of 40°46'32.6"N, 73°28'26.8"WLocation

Past Weather in 40°46'32.6"N, 73°28'26.8"W — Graph

°F

40°46'32.6"N, 73°28'26.8"W Temperature Yesterday

Maximum temperature yesterday: 72 °F (at 4:51 pm)
Minimum temperature yesterday: 59 °F (at 4:51 am)
Average temperature yesterday: 66 °F

High & Low Weather Summary for the Past Weeks

 TemperatureHumidityPressure
High81 °F (May 29, 1:51 pm)97% (May 22, 8:51 pm)30.46 "Hg (May 22, 8:51 pm)
Low46 °F (May 21, 4:51 am)24% (May 19, 3:51 pm)29.68 "Hg (Jun 3, 5:51 am)
Average64 °F68%30.14 "Hg
* Reported May 19 5:51 am — Jun 3 5:51 am, 40°46'32.6"N, 73°28'26.8"W. Weather by CustomWeather, © 2020

Note: Actual official high and low records may vary slightly from our data, if they occured in-between our weather recording intervals... More about our weather records

40°46'32.6"N, 73°28'26.8"W Weather History for the Previous 24 Hours

Scroll right to see more
 ConditionsComfort  
Time TempWeatherWind HumidityBarometerVisibility
5:51 am
Wed, Jun 3
61 °FFog.N/A97%29.68 "Hg4 mi
5:12 am61 °FFog.N/A97%29.72 "Hg3 mi
5:02 am61 °FFog.N/A93%29.73 "Hg1 mi
4:36 am61 °FLight rain. Fog.N/A97%29.73 "Hg3 mi
3:59 am61 °FHeavy rain. Fog.N/A97%29.76 "Hg2 mi
3:51 am61 °FLight rain. Fog.N/A93%29.71 "Hg4 mi
3:12 am62 °FHeavy rain. Overcast.N/A80%29.74 "Hg2 mi
2:51 am63 °FMostly cloudy.N/A73%29.72 "Hg10 mi
1:51 am62 °FPassing clouds.N/A73%29.75 "Hg10 mi
12:51 am67 °FLight rain. Partly cloudy.N/A51%29.77 "Hg10 mi
11:51 pm
Tue, Jun 2
68 °FPassing clouds.N/A45%29.81 "Hg10 mi
10:51 pm69 °FOvercast.N/A44%29.84 "Hg10 mi
9:51 pm68 °FMostly cloudy.N/A45%29.85 "Hg10 mi
8:51 pm69 °FPassing clouds.N/A42%29.85 "Hg10 mi
7:51 pm70 °FPartly sunny.N/A42%29.85 "Hg10 mi
6:51 pm71 °FOvercast.N/A38%29.83 "Hg10 mi
5:51 pm71 °FOvercast.N/A38%29.83 "Hg10 mi
4:51 pm72 °FBroken clouds.N/A34%29.86 "Hg10 mi
3:51 pm71 °FPassing clouds.N/A36%29.89 "Hg10 mi
2:51 pm71 °FPartly sunny.N/A38%29.93 "Hg10 mi
1:51 pm71 °FMore clouds than sun.N/A36%29.95 "Hg10 mi
12:51 pm70 °FOvercast.N/A41%29.98 "Hg10 mi
11:51 am69 °FMore clouds than sun.N/A42%30.01 "Hg10 mi
10:51 am68 °FPassing clouds.N/A44%30.02 "Hg10 mi
9:51 am66 °FSunny.N/A45%30.04 "Hg10 mi
8:51 am64 °FSunny.N/A50%30.05 "Hg10 mi
7:51 am63 °FSunny.N/A47%30.06 "Hg10 mi
6:51 am61 °FPassing clouds.N/A50%30.07 "Hg10 mi
Weather by CustomWeather, © 2020

See weather overview

Advertising